GALAXY 11 (G-11)

Last updated on May 21, 2019, 3:10 a.m. UTC

1 26038U 99071A   19140.80683743 -.00000249  00000-0  00000+0 0  9994
2 26038   0.3040 105.3726 0003145 339.5394  55.0887  0.99957755 71165
UTC
Height (km)
Latitude
Longitude
Inclination
Orbital Period
UTC large
Height (km)
Speed (km/s)
/
Latitude / Longitude
Inclination (degrees)
Orbital Period (minutes)
Azimuth
Elevation
Range (km)
Doppler Factor
iOS Compass Heading
iOS Angle

Next 30 passes for location: Hong Kong

Rise time Rise Azimuth (degrees) Set time Set Azimuth (degrees) Duration Max altitude (degrees)

No matching passes for this satellites